Regional Weather Roundup
Issued by NWS

Home | Current Version | Previous Version | Text Only | Print | Product List | Glossary Off
Versions: 1 2 3 4 5 6 7 8 9 10 11 12 13 14 15 16 17 18 19 20 21 22 23 24 25 26 27 28 29 30 31 32 33 34 35 36 37 38 39 40 41 42 43 44 45 46 47 48 49 50

000
ASUS43 KLMK 270810
RWRKY
KENTUCKY REGIONAL WEATHER ROUNDUP
NATIONAL WEATHER SERVICE LOUISVILLE KY
400 AM EDT FRI MAY 27 2016

NOTE "FAIR" INDICATES FEW OR NO CLOUDS BELOW 12,000 FEET
WITH NO SIGNIFICANT WEATHER AND/OR OBSTRUCTIONS TO VISIBILITY.

KYZ001>023-026-027-061>063-070>075-270900-
WESTERN AND SOUTH CENTRAL KENTUCKY

CITY           SKY/WX    TMP DP  RH WIND       PRES   REMARKS
PADUCAH        LGT RAIN  66  63  90 NE5       29.91F
HENDERSON      MOCLDY    66  61  82 SE5       29.96F
OWENSBORO      CLOUDY    67  66  96 SE6       30.00R
HOPKINSVILLE   CLOUDY    66  65  98 E6        29.98F
BOWLING GREEN  PTCLDY    62  61  96 SE3       30.02R FOG
GLASGOW        PTCLDY    64  64 100 CALM      30.01F
$$

KYZ024-025-028>034-038-045-046-053-270900-
NORTH CENTRAL KENTUCKY

CITY           SKY/WX    TMP DP  RH WIND       PRES   REMARKS
LOUISVILLE/SDF MOCLDY    66  62  87 SE6       30.01S
LOUISVILLE/LOU PTCLDY    65  62  90 CALM      30.03R
FORT KNOX      MOCLDY    62  62 100 E2        30.01S
$$

KYZ035>037-039>044-047>052-055>060-089>105-270900-
NORTHEAST KENTUCKY

CITY           SKY/WX    TMP DP  RH WIND       PRES   REMARKS
LEXINGTON      CLOUDY    62  60  93 SE5       30.04S
COVINGTON      MOCLDY    62  61  96 S6        30.03S
FRANKFORT      CLOUDY    64  61  90 CALM      30.02S
$$

KYZ054-064>069-076>088-106>120-270900-
SOUTHEAST KENTUCKY

CITY           SKY/WX    TMP DP  RH WIND       PRES   REMARKS
JACKSON        CLOUDY    68  61  78 CALM      30.07S
LONDON         MOCLDY    65  60  84 CALM      30.06S
SOMERSET       CLOUDY    61  61 100 CALM      30.07R
MIDDLESBORO    CLEAR     60  60 100 CALM      30.10S
MONTICELLO     SUNNY     63  61  93 VRB7      30.07R
$$





USA.gov is the U.S. government's official web portal to all federal, state and local government web resources and services.